Location: Unspecified
(48.7670°N, 0.0000°E)
Time: 20:56:56
(UTC+00:00)

Tiros 1 despin weight - Visible Passes

Search period start: 17 June 2019 00:00
Search period end: 27 June 2019 00:00
Orbit: 595 x 642 km, 48.2° (Epoch: 17 June)

Date Brightness Start Highest point End Pass type
(mag) Time Alt. Az. Time Alt. Az. Time Alt. Az.
17 Jun ? 00:10:24 11° ESE 00:10:24 11° ESE 00:10:54 10° ESE visible
17 Jun ? 01:47:26 23° SSW 01:49:43 43° SSE 01:53:55 10° E visible
18 Jun ? 00:25:47 21° SE 00:25:47 21° SE 00:28:36 10° E visible
18 Jun ? 02:02:49 16° WSW 02:06:14 60° SSE 02:10:35 10° E visible
19 Jun ? 00:41:06 33° SSE 00:41:35 34° SSE 00:45:34 10° E visible
19 Jun ? 02:18:24 10° WSW 02:22:49 76° S 02:27:15 10° E visible
19 Jun ? 23:19:19 12° ESE 23:19:19 12° ESE 23:19:55 10° ESE visible
20 Jun ? 00:56:19 31° SW 00:58:02 50° SSE 01:02:19 10° E visible
20 Jun ? 02:35:01 10° W 02:39:27 84° S 02:43:53 10° E visible
20 Jun ? 23:34:24 24° SE 23:34:24 24° SE 23:37:11 10° E visible
21 Jun ? 01:11:24 18° WSW 01:14:35 68° SSE 01:18:59 10° E visible
21 Jun ? 02:51:39 10° W 02:56:06 83° S 03:00:31 10° E visible
21 Jun ? 23:49:18 38° S 23:49:52 40° SSE 23:54:01 10° E visible
22 Jun ? 01:26:45 10° W 01:31:12 81° S 01:35:37 10° E visible
22 Jun ? 03:08:18 10° W 03:12:42 72° SSW 03:17:07 10° ESE visible
22 Jun ? 22:26:49 17° ESE 22:26:49 17° ESE 22:28:39 10° E visible
23 Jun ? 00:03:46 23° SW 00:06:22 58° SSE 00:10:43 10° E visible
23 Jun ? 01:43:23 10° W 01:47:49 85° S 01:52:16 10° E visible
23 Jun ? 22:40:02 24° S 22:41:44 32° SSE 22:45:41 10° E visible
24 Jun ? 00:18:30 10° WSW 00:22:57 74° SSE 00:27:22 10° E visible
24 Jun ? 02:00:02 10° W 02:04:28 79° S 02:08:53 10° ESE visible
24 Jun ? 21:14:46 10° S 21:17:21 15° SE 21:19:54 10° ESE visible
24 Jun ? 22:53:53 10° SW 22:58:10 48° SSE 23:02:26 10° E visible
25 Jun ? 00:35:07 10° W 00:39:34 84° S 00:44:00 10° E visible
25 Jun ? 02:16:40 10° W 02:21:04 65° SSW 02:25:26 10° ESE visible
25 Jun ? 21:29:57 10° SSW 21:33:37 25° SE 21:37:15 10° E visible
25 Jun ? 23:10:17 10° WSW 23:14:42 65° SSE 23:19:06 10° E visible
26 Jun ? 00:51:45 10° W 00:56:13 83° S 01:00:38 10° E visible
26 Jun ? 02:33:20 10° W 02:37:36 47° SSW 02:41:50 10° SE visible
26 Jun ? 21:45:50 10° SW 21:50:00 38° SSE 21:54:08 10° E visible
26 Jun ? 23:26:51 10° WSW 23:31:18 79° S 23:35:44 10° E visible
